JCSAT-16

Last updated on Oct. 1, 2020, 5:42 a.m. UTC

1 41729U 16050A   20274.80676684 -.00000246  00000-0  00000-0 0  9998
2 41729   0.0206  68.5535 0003921 175.8000 146.4913  1.00269828 15157
UTC
Height (km)
Latitude
Longitude
Inclination
Orbital Period
UTC large
Height (km)
Speed (km/s)
/
Latitude / Longitude
Inclination (degrees)
Orbital Period (minutes)
Azimuth
Elevation
Range (km)
Doppler Factor
iOS Compass Heading
iOS Angle

Next 30 passes for location: Hong Kong

Rise time Rise Azimuth (degrees) Set time Set Azimuth (degrees) Duration Max altitude (degrees)

No matching passes for this satellites